Time,TemperatureF,DewpointF,PressureIn,WindDirection,WindDirectionDegrees,WindSpeedMPH,WindSpeedGustMPH,Humidity,HourlyPrecipIn,Conditions,Clouds,dailyrainin,SoftwareType,DateUTC
2013-05-11 00:00:00,64.9,53.3,29.94,SSE,158,0.0,0.0,66,0.00,,SKC,0.00,VWS V14.00,2013-05-11 04:00:00,
2013-05-11 00:20:00,64.2,53.0,29.94,SSE,158,0.0,0.0,67,0.00,,SKC,0.00,VWS V14.00,2013-05-11 04:20:00,
2013-05-11 00:40:00,63.5,53.2,29.94,South,180,0.0,0.0,69,0.00,,SKC,0.00,VWS V14.00,2013-05-11 04:40:00,
2013-05-11 01:00:00,63.1,53.2,29.94,South,180,0.0,0.0,70,0.00,,SKC,0.00,VWS V14.00,2013-05-11 05:00:00,
2013-05-11 01:20:00,62.8,52.9,29.93,SSE,158,0.0,0.0,70,0.00,,SKC,0.00,VWS V14.00,2013-05-11 05:20:00,
2013-05-11 02:00:00,62.1,52.9,29.91,SSE,158,0.0,0.0,72,0.00,,SKC,0.00,VWS V14.00,2013-05-11 06:00:00,
2013-05-11 02:20:00,61.5,52.4,29.92,SSE,158,0.0,0.0,72,0.00,,SKC,0.00,VWS V14.00,2013-05-11 06:20:00,
2013-05-11 02:40:00,61.2,53.2,29.92,SSE,158,0.0,0.0,75,0.00,,SKC,0.00,VWS V14.00,2013-05-11 06:40:00,
2013-05-11 03:20:00,60.4,52.8,29.91,SSE,158,0.0,0.0,76,0.00,,SKC,0.00,VWS V14.00,2013-05-11 07:20:00,
2013-05-11 03:40:00,60.4,52.8,29.90,South,180,0.0,0.0,76,0.00,,SKC,0.00,VWS V14.00,2013-05-11 07:40:00,
2013-05-11 04:20:00,59.7,53.2,29.90,SE,135,0.0,0.0,79,0.00,,SKC,0.00,VWS V14.00,2013-05-11 08:20:00,
2013-05-11 05:00:00,59.9,54.1,29.90,South,180,0.0,0.0,81,0.00,,SKC,0.00,VWS V14.00,2013-05-11 09:00:00,
2013-05-11 05:20:00,59.7,53.9,29.90,SSE,158,0.0,0.0,81,0.00,,SKC,0.00,VWS V14.00,2013-05-11 09:20:00,
2013-05-11 05:40:00,59.5,53.7,29.89,SSE,158,0.0,0.0,81,0.00,,SKC,0.00,VWS V14.00,2013-05-11 09:40:00,
2013-05-11 06:01:00,59.4,54.2,29.89,South,180,0.0,0.0,83,0.00,,SKC,0.00,VWS V14.00,2013-05-11 10:01:00,
2013-05-11 06:20:00,59.2,53.7,29.89,South,180,0.0,0.0,82,0.00,,SKC,0.00,VWS V14.00,2013-05-11 10:20:00,
2013-05-11 06:40:00,59.0,54.5,29.89,South,180,0.0,0.0,85,0.00,,SKC,0.00,VWS V14.00,2013-05-11 10:40:00,
2013-05-11 07:00:00,59.4,55.2,29.90,South,180,0.0,0.0,86,0.00,,SKC,0.00,VWS V14.00,2013-05-11 11:00:00,
2013-05-11 07:20:00,59.4,55.5,29.90,South,180,0.0,0.0,87,0.00,,SKC,0.00,VWS V14.00,2013-05-11 11:20:00,
2013-05-11 07:40:00,59.7,55.8,29.91,South,180,0.0,0.0,87,0.00,,SKC,0.00,VWS V14.00,2013-05-11 11:40:00,
2013-05-11 08:00:00,59.9,55.7,29.91,South,180,0.0,0.0,86,0.00,,SKC,0.00,VWS V14.00,2013-05-11 12:00:00,
2013-05-11 08:20:00,60.3,56.1,29.91,South,180,0.0,0.0,86,0.00,,SKC,0.00,VWS V14.00,2013-05-11 12:20:00,
2013-05-11 08:40:00,60.4,56.2,29.92,South,180,0.0,0.0,86,0.00,,SKC,0.00,VWS V14.00,2013-05-11 12:40:00,
2013-05-11 09:00:00,61.5,57.6,29.92,South,180,0.0,0.0,87,0.00,,SKC,0.00,VWS V14.00,2013-05-11 13:00:00,
2013-05-11 09:40:00,63.3,58.4,29.90,South,180,0.0,0.0,84,0.00,,SKC,0.00,VWS V14.00,2013-05-11 13:40:00,
2013-05-11 10:00:00,64.6,58.6,29.91,South,180,0.0,0.0,81,0.00,,SKC,0.00,VWS V14.00,2013-05-11 14:00:00,
2013-05-11 10:20:00,65.7,59.0,29.92,SSW,202,0.0,0.0,79,0.00,,SKC,0.00,VWS V14.00,2013-05-11 14:20:00,
2013-05-11 10:40:00,66.4,58.6,29.92,South,180,0.0,0.0,76,0.00,,SKC,0.00,VWS V14.00,2013-05-11 14:40:00,
2013-05-11 11:00:00,66.6,58.0,29.92,SSW,202,0.0,0.0,74,0.00,,SKC,0.00,VWS V14.00,2013-05-11 15:00:00,
2013-05-11 11:20:00,67.8,58.9,29.91,SSW,202,0.0,0.0,73,0.00,,SKC,0.00,VWS V14.00,2013-05-11 15:20:00,
2013-05-11 11:40:00,68.7,59.3,29.91,South,180,0.0,0.0,72,0.00,,SKC,0.00,VWS V14.00,2013-05-11 15:40:00,
2013-05-11 12:00:00,69.4,58.0,29.92,SSW,202,0.0,0.0,67,0.00,,SKC,0.00,VWS V14.00,2013-05-11 16:00:00,
2013-05-11 12:20:00,70.0,57.3,29.91,South,180,0.0,0.0,64,0.00,,SKC,0.00,VWS V14.00,2013-05-11 16:20:00,
2013-05-11 12:40:00,71.2,58.0,29.91,WSW,248,0.0,0.0,63,0.00,,SKC,0.00,VWS V14.00,2013-05-11 16:40:00,
2013-05-11 13:00:00,70.9,55.8,29.91,South,180,0.0,0.0,59,0.00,,SKC,0.00,VWS V14.00,2013-05-11 17:00:00,
2013-05-11 13:20:00,70.7,56.2,29.89,SSE,158,0.0,0.0,60,0.00,,SKC,0.00,VWS V14.00,2013-05-11 17:20:00,
2013-05-11 13:40:00,71.8,56.7,29.89,SSW,202,0.0,0.0,59,0.00,,SKC,0.00,VWS V14.00,2013-05-11 17:40:00,
2013-05-11 14:00:00,72.0,55.9,29.89,SSW,202,0.0,0.0,57,0.00,,SKC,0.00,VWS V14.00,2013-05-11 18:00:00,
2013-05-11 14:20:00,72.0,55.4,29.89,South,180,0.0,0.0,56,0.00,,SKC,0.00,VWS V14.00,2013-05-11 18:20:00,
2013-05-11 14:40:00,70.3,57.2,29.89,SSE,158,0.0,0.0,63,0.00,,SKC,0.00,VWS V14.00,2013-05-11 18:40:00,
2013-05-11 15:00:00,68.9,58.7,29.89,SSW,202,0.0,0.0,70,0.00,,SKC,0.00,VWS V14.00,2013-05-11 19:00:00,
2013-05-11 15:20:00,70.7,58.8,29.88,SSW,202,0.0,0.0,66,0.00,,SKC,0.00,VWS V14.00,2013-05-11 19:20:00,
2013-05-11 15:40:00,70.7,55.7,29.88,South,180,0.0,0.0,59,0.00,,SKC,0.00,VWS V14.00,2013-05-11 19:40:00,
2013-05-11 16:00:00,70.3,56.7,29.87,South,180,0.0,0.0,62,0.00,,SKC,0.00,VWS V14.00,2013-05-11 20:00:00,
2013-05-11 16:20:00,70.2,57.4,29.87,SW,225,0.0,0.4,64,0.00,,SKC,0.00,VWS V14.00,2013-05-11 20:20:00,
2013-05-11 16:40:00,70.3,57.6,29.86,SSW,202,0.0,0.0,64,0.00,,SKC,0.00,VWS V14.00,2013-05-11 20:40:00,
2013-05-11 17:00:00,70.2,57.9,29.85,South,180,0.0,0.0,65,0.00,,SKC,0.00,VWS V14.00,2013-05-11 21:00:00,
2013-05-11 17:20:00,70.0,57.7,29.86,South,180,0.0,0.0,65,0.00,,SKC,0.00,VWS V14.00,2013-05-11 21:20:00,
2013-05-11 17:40:00,69.3,57.0,29.87,South,180,0.0,0.0,65,0.00,,SKC,0.00,VWS V14.00,2013-05-11 21:40:00,
2013-05-11 18:01:00,68.2,57.6,29.87,South,180,0.0,0.0,69,0.00,,SKC,0.00,VWS V14.00,2013-05-11 22:01:00,
2013-05-11 18:20:00,68.2,58.4,29.86,SSE,158,0.0,0.0,71,0.00,,SKC,0.00,VWS V14.00,2013-05-11 22:20:00,
2013-05-11 18:40:00,68.5,55.9,29.86,SE,135,0.0,0.0,64,0.00,,SKC,0.00,VWS V14.00,2013-05-11 22:40:00,
2013-05-11 19:00:00,68.7,53.8,29.87,SE,135,0.0,0.0,59,0.00,,SKC,0.00,VWS V14.00,2013-05-11 23:00:00,
2013-05-11 19:20:00,68.9,54.0,29.88,SE,135,0.0,0.0,59,0.00,,SKC,0.00,VWS V14.00,2013-05-11 23:20:00,
2013-05-11 19:40:00,68.7,54.3,29.88,NNW,338,0.0,0.0,60,0.00,,SKC,0.00,VWS V14.00,2013-05-11 23:40:00,
2013-05-11 20:00:00,68.4,53.5,29.88,ESE,112,0.0,0.0,59,0.00,,SKC,0.00,VWS V14.00,2013-05-12 00:00:00,
2013-05-11 20:40:00,66.7,52.0,29.90,East,90,0.0,0.0,59,0.00,,SKC,0.00,VWS V14.00,2013-05-12 00:40:00,
2013-05-11 21:00:00,65.8,51.1,29.91,North,0,0.0,0.0,59,0.00,,SKC,0.00,VWS V14.00,2013-05-12 01:00:00,
2013-05-11 21:20:00,64.8,50.6,29.92,NE,45,0.0,0.0,60,0.00,,SKC,0.00,VWS V14.00,2013-05-12 01:20:00,
2013-05-11 21:40:00,63.9,49.7,29.93,East,90,0.0,0.0,60,0.00,,SKC,0.00,VWS V14.00,2013-05-12 01:40:00,
2013-05-11 22:20:00,62.1,48.5,29.95,NE,45,0.0,0.0,61,0.00,,SKC,0.00,VWS V14.00,2013-05-12 02:20:00,
2013-05-11 22:40:00,61.0,47.9,29.95,ESE,112,0.0,0.0,62,0.00,,SKC,0.00,VWS V14.00,2013-05-12 02:40:00,
2013-05-11 23:00:00,60.3,47.6,29.96,East,90,0.0,0.0,63,0.00,,SKC,0.00,VWS V14.00,2013-05-12 03:00:00,
2013-05-11 23:20:00,59.7,47.5,29.97,East,90,0.0,0.0,64,0.00,,SKC,0.00,VWS V14.00,2013-05-12 03:20:00,